User: anonymous   Login
Location: Ash Swamp
(41.5170°N, 74.6157°W)
Time: 00:46:09
(UTC+00:00)
Language:

Meteor 1-11 Rocket - Orbit

View from above orbital plane
View from above orbital plane
View from above satellite
View from above satellite

Ground track
Ground track

The orbit data is extracted from the following two-line orbital elements,

1  5918U 72022B   20273.44114746 -.00000033 +00000-0 -27468-4 0  9990
2  5918 081.2360 244.7556 0057879 193.4695 166.4932 14.05871889486371
Epoch (UTC): 29 September 2020 10:35:15
Eccentricity: 0.0057879
inclination: 81.2360°
perigee height: 831 km
apogee height: 915 km
right ascension of ascending node: 244.7556°
argument of perigee: 193.4695°
revolutions per day: 14.05871889
mean anomaly at epoch: 166.4932°
orbit number at epoch: 48637

The dashed part of the orbit path shows where the satellite is in the earth's shadow,  

DLR